Tracking 25372 objects as of 24-Jan-2022
HD Live streaming from Space Station
objects crossing your sky now

COSMOS 1058

Track COSMOS 1058 now!
10-day predictions
COSMOS 1058 is classified as:


NORAD ID: 11135
Int'l Code: 1978-109H
Perigee: 1,487.9 km
Apogee: 1,544.1 km
Inclination: 74.0 °
Period: 116.2 minutes
Semi major axis: 7886 km
RCS: 0.7109 m2 (medium)
Launch date: December 5, 1978
Source: Commonwealth of Independent States (former USSR) (CIS)
Launch site: PLESETSK MISSILE AND SPACE COMPLEX (PKMTR)
aabbcc
Your satellite tracking list
Your tracking list is empty




NASA's NSSDC Master Catalog

Two Line Element Set (TLE):
1 11135U 78109H   22023.87124199  .00000004  00000-0  14362-3 0  9999
2 11135  74.0194 334.5692 0035643  86.5082 333.4983 12.39471817951810
Source of the keplerian elements: AFSPC